Home > Weather > Wolverhampton > Past weeks

Flag for United Kingdom Past Weather in Wolverhampton, England, United Kingdom — Yesterday and Last 2 Weeks

Now
55 °F

Clear.


Feels Like: 55 °F
Forecast: 51 / 64 °F
Wind: 3 mph from North

Location: Birmingham / Airport

Current Time: Jun 25, 2016 at 6:16:12 AM

Latest Report: Jun 25, 2016 at 5:20 AM


Visibility: 10 mi

Pressure: 30.01 "Hg

Humidity: 88%

Dew Point: 52 °F

Location of WolverhamptonLocation

Past Weather in Wolverhampton — Graph

°F

Wolverhampton Temperature Yesterday

Maximum temperature yesterday: 68 °F (at 1:50 PM)
Minimum temperature yesterday: 50 °F (at 4:50 AM)
Average temperature yesterday: 61 °F

High & Low Weather Summary for the Past Weeks

 TemperatureHumidityPressure
High72 °F (Jun 10, 2:50 PM)100% (Jun 10, 5:50 AM)30.21 "Hg (Jun 10, 5:50 AM)
Low50 °F (Jun 24, 4:50 AM)43% (Jun 24, 4:50 PM)29.33 "Hg (Jun 14, 4:50 PM)
Average60 °F83%29.82 "Hg
* Reported Jun 10 5:20 AM — Jun 25 5:20 AM, Wolverhampton, Weather by CustomWeather, © 2016

Note: Actual official high and low records may vary slightly from our data, if they occured in-between our weather recording intervals... More about our weather records

Advertising

Wolverhampton Weather History for the Previous 24 Hours

Scroll right to see more
 ConditionsComfort  
Time TempWeatherWind HumidityBarometerVisibility
5:20 AM
Sat, Jun 25
55 °FClear.3 mph88%30.01 "Hg10 mi
4:50 AM55 °FPassing clouds.5 mph82%30.01 "HgN/A
4:20 AM55 °FPassing clouds.5 mph88%30.01 "HgN/A
3:50 AM54 °FClear.3 mph94%30.01 "Hg10 mi
3:20 AM55 °FClear.3 mph82%30.01 "Hg10 mi
2:50 AM57 °FClear.5 mph77%30.01 "Hg10 mi
2:20 AM57 °FClear.5 mph77%30.01 "Hg10 mi
1:50 AM57 °FPassing clouds.5 mph77%30.01 "HgN/A
1:20 AM57 °FPassing clouds.5 mph77%30.01 "HgN/A
12:50 AM57 °FPassing clouds.3 mph77%30.04 "HgN/A
12:20 AM59 °FPassing clouds.6 mph72%30.04 "HgN/A
11:50 PM
Fri, Jun 24
59 °FPassing clouds.5 mph72%30.04 "HgN/A
11:20 PM59 °FPassing clouds.5 mph72%30.04 "HgN/A
10:50 PM59 °FPassing clouds.5 mph68%30.04 "HgN/A
10:20 PM61 °FScattered clouds.6 mph63%30.04 "HgN/A
9:50 PM61 °FScattered clouds.5 mph63%30.01 "HgN/A
9:20 PM59 °FScattered showers. Scattered clouds.7 mph68%30.01 "HgN/A
8:50 PM61 °FScattered showers. Scattered clouds.9 mph59%30.01 "HgN/A
8:20 PM63 °FScattered showers. Scattered clouds.8 mph56%30.01 "HgN/A
7:50 PM63 °FScattered showers. Scattered clouds.10 mph59%30.01 "HgN/A
7:20 PM64 °FPassing clouds.8 mph56%30.01 "HgN/A
6:50 PM64 °FScattered clouds.10 mph56%30.01 "HgN/A
6:20 PM64 °FScattered clouds.13 mph56%30.01 "HgN/A
5:50 PM64 °FScattered clouds.12 mph56%30.01 "HgN/A
5:20 PM66 °FScattered clouds.15 mph52%29.98 "HgN/A
4:50 PM68 °FScattered showers. Scattered clouds.12 mph43%29.98 "HgN/A
4:20 PM68 °FScattered clouds.12 mph46%29.98 "HgN/A
3:50 PM66 °FScattered clouds.10 mph52%29.98 "HgN/A
3:20 PM64 °FScattered showers. Scattered clouds.7 mph64%29.98 "HgN/A
2:50 PM64 °FScattered clouds.10 mph64%29.98 "HgN/A
2:20 PM68 °FScattered clouds.9 mph56%29.98 "HgN/A
1:50 PM68 °FScattered clouds.9 mph53%29.98 "HgN/A
1:20 PM66 °FScattered clouds.10 mph56%30.01 "HgN/A
12:50 PM64 °FScattered clouds.8 mph60%30.01 "HgN/A
12:20 PM66 °FScattered clouds.9 mph52%30.01 "HgN/A
11:50 AM66 °FBroken clouds.8 mph56%30.01 "HgN/A
11:20 AM66 °FBroken clouds.10 mph56%30.01 "HgN/A
10:20 AM64 °FBroken clouds.10 mph60%30.01 "HgN/A
9:50 AM63 °FScattered clouds.9 mph64%30.01 "HgN/A
9:20 AM63 °FScattered clouds.9 mph68%30.04 "HgN/A
8:50 AM61 °FBroken clouds.9 mph72%30.01 "HgN/A
8:20 AM59 °FScattered clouds.7 mph77%30.01 "HgN/A
7:50 AM59 °FPassing clouds.8 mph82%30.01 "HgN/A
7:20 AM57 °FPassing clouds.6 mph82%30.01 "HgN/A
6:50 AM57 °FPassing clouds.6 mph82%30.01 "HgN/A
6:20 AM55 °FScattered clouds.3 mph88%30.01 "HgN/A
Weather by CustomWeather, © 2016

See weather overviewHow to use our weather pages